Tiempo atmosférico en la estación meteorológica de Medina De Rioseco, Valladolid (731 m.)



Fecha
DESCASC
Temp. máxima en grados centígrados (hora)
DESCASC
Temp. mínima en grados centígrados (hora)
DESCASC
Temp. media en grados centígrados
DESCASC
Racha de viento máxima en m/sg (hora)
DESCASC
Velocidad máxima media en intervalos de 10 minutos(hora)
DESCASC
Precipitaciones diarias en mm
DESCASC
Precipitaciones de 00:00 a 06:00 en mm
DESCASC
Precipitaciones de 06:00 a 12:00 en mm
DESCASC
Precipitaciones de 12:00 a 18:00 en mm
DESCASC
Precipitaciones de 18:00 a 24:00 en mm
DESCASC
26-11-2020 12.7 (14:10) 7.6 (09:00) 10.1 9.72 (03:10) 6.67 (03:20) 0.2 0.2 0 0 0
25-11-2020 9.9 (20:30) 0.5 (03:00) 5.2 7.22 (20:30) 3.89 (20:10) 0 0 0 0 0
24-11-2020 12.6 (14:40) -2.7 (08:20) 5 7.22 (15:00) 5 (14:50) 0 0 0 0 0
23-11-2020 13.6 (15:40) -1.5 (07:10) 6.1 3.61 (12:00) 2.22 (12:10) 0 0 0 0 0
22-11-2020 14.3 (15:40) -1.9 (-00:0) 6.2 3.33 (14:50) 1.94 (23:40) 0 0 0 0 0
21-11-2020 13.7 (15:40) 0.2 (00:00) 6.9 7.5 (03:10) 4.17 (01:00) 0 0 0 0 0
20-11-2020 11.8 (15:00) 2.4 (00:00) 7.1 9.72 (01:40) 5.56 (01:40) 0 0 0 0 0
19-11-2020 16.8 (15:20) 4.3 (00:00) 10.5 9.44 (19:30) 5.83 (19:40) 0 0 0 0 0
18-11-2020 18.1 (16:40) 2.1 (00:00) 10.1 3.33 (14:00) 2.22 (09:00) 0 0 0 0 0
17-11-2020 16.9 (16:20) 1.6 (00:00) 9.2 3.33 (12:20) 1.94 (17:00) 0 0 0 0 0
16-11-2020 15.3 (16:30) 4.6 (00:00) 10 5 (15:00) 2.78 (14:50) 0 0 0 0 0
15-11-2020 16.8 (15:00) 11.4 (00:00) 14.1 13.61 (12:00) 8.89 (14:50) 0 0 0 0 0
14-11-2020 14.1 (15:40) 3.5 (00:00) 8.8 6.67 (23:00) 4.17 (23:50) 0.2 0 0 0.2 0
13-11-2020 13 (15:30) 4.2 (00:00) 8.6 5.56 (16:00) 3.61 (16:20) 0.2 0 0.2 0 0
12-11-2020 13.4 (16:10) 2.8 (00:00) 8.1 3.89 (11:00) 2.22 (11:00) 0 0 0 0 0
11-11-2020 9.7 (15:50) 5.3 (00:00) 7.5 4.17 (10:30) 2.78 (10:30) 0 0 0 0 0
10-11-2020 9.5 (16:50) 3.7 (00:00) 6.6 3.06 (07:50) 1.94 (07:40) 0 0 0 0 0
09-11-2020 14.2 (16:10) 5 (00:00) 9.6 6.67 (16:10) 4.17 (13:20) 2 1.6 0.4 0 0
08-11-2020 14.8 (12:50) 7.4 (00:00) 11.1 10.83 (13:10) 6.11 (13:10) 5.4 0.2 0 1.8 3.4
07-11-2020 15 (14:20) 8.8 (00:00) 11.9 9.72 (13:00) 6.39 (16:00) 2.6 0.2 2.4 0 0
06-11-2020 16.4 (15:50) 9.8 (00:00) 13.1 16.67 (21:00) 7.78 (21:00) 10.8 0 0 0 10.8
05-11-2020 12.8 (13:00) 5 (00:00) 8.9 13.89 (02:00) 8.89 (03:00) 0 0 0 0 0
04-11-2020 10.1 (14:20) 1.9 (00:00) 6 15 (22:10) 8.33 (15:00) 1.6 0 0 0 1.6
03-11-2020 14.5 (14:40) 4.6 (00:00) 9.5 10.56 (16:00) 6.39 (18:40) 0 0 0 0 0
02-11-2020 18.7 (14:30) 9.5 (00:00) 14.1 7.5 (12:30) 4.72 (11:20) 0.4 0 0 0 0.4
01-11-2020 19 (15:30) 6.7 (00:00) 12.8 6.67 (15:30) 4.17 (15:30) 0 0 0 0 0
31-10-2020 18.4 (15:30) 3 (00:00) 10.7 6.94 (14:50) 4.72 (15:10) 0 0 0 0 0
30-10-2020 19.1 (16:40) 2.3 (00:00) 10.7 4.44 (13:50) 2.22 (04:00) 0 0 0 0 0
29-10-2020 15.3 (16:40) 1.9 (00:00) 8.6 5 (14:40) 2.78 (09:00) 0 0 0 0 0
28-10-2020 15.7 (14:50) 5.4 (00:00) 10.5 10 (05:40) 5.83 (06:10) 0 0 0 0 0

Gráficas

Temp. máximas Temp. mínimas Temp. medias Precipitaciones Rachas de viento máximas Velocidades máximas media en intervalos de 10 minutos

Datos horarios

Fecha y hora oficial Temperatura (ºC) Velocidad del viento (km/h) Dirección del viento Racha (km/h) Dirección de racha Precipitación (mm) Presión (hPa) Tendencia (hPa) Humedad (%)
2020-11-26 23:00:00 10 5 Sur 18 Este 0 -- -- 79
2020-11-26 22:00:00 10 9 Este 21 Este 0 -- -- 79
2020-11-26 21:00:00 10.1 11 Este 23 Este 0 -- -- 78
2020-11-26 20:00:00 10.6 13 Este 26 Este 0 -- -- 74
2020-11-26 19:00:00 10.8 14 Este 32 Sudeste 0 -- -- 72
2020-11-26 18:00:00 11.4 17 Este 27 Este 0 -- -- 70
2020-11-26 17:00:00 11.6 16 Este 27 Este 0 -- -- 70
2020-11-26 16:00:00 11.8 14 Este 23 Este 0 -- -- 69
2020-11-26 15:00:00 12.3 12 Este 24 Sudeste 0 -- -- 66
2020-11-26 14:00:00 12.4 13 Este 26 Sudeste 0 -- -- 66
2020-11-26 13:00:00 11.7 12 Este 26 Este 0 -- -- 69
2020-11-26 12:00:00 10.7 11 Este 26 Este 0 -- -- 73
2020-11-26 11:00:00 10 12 Este 35 Este 0 -- -- 74
2020-11-26 10:00:00 8.3 12 Este 25 Este 0 -- -- 79
2020-11-26 09:00:00 7.6 12 Este 22 Este 0 -- -- 82
2020-11-26 08:00:00 8.2 10 Este 22 Este 0 -- -- 81
2020-11-26 07:00:00 8.9 12 Sudeste 30 Sudeste 0 -- -- 78
2020-11-26 06:00:00 8.4 12 Sudeste 25 Sudeste 0 -- -- 82
2020-11-26 05:00:00 8.2 13 Sudeste 30 Sudeste 0 -- -- 83
2020-11-26 04:00:00 8.2 8 Sudeste 35 Sur 0.2 -- -- 84
2020-11-26 03:00:00 8.5 19 Sur 29 Sur 0 -- -- 79
2020-11-26 02:00:00 8.7 20 Sur 33 Sur 0 -- -- 80
2020-11-26 01:00:00 8.7 22 Sur 32 Sur 0 -- -- 78
2020-11-26 00:00:00 8.2 8 Sudeste 23 Sudeste 0 -- -- 76
2020-11-25 23:00:00 8.4 9 Sudeste 17 Sudeste 0 -- -- 75
2020-11-25 22:00:00 9 9 Sudeste 23 Sudeste 0 -- -- 71
2020-11-25 21:00:00 9.5 11 Sudeste 26 Sudeste 0 -- -- 70
2020-11-25 20:00:00 9.7 13 Sur 23 Sur 0 -- -- 72
2020-11-25 19:00:00 9.3 5 Sudeste 19 Sur 0 -- -- 74
2020-11-25 18:00:00 9.4 10 Sur 20 Sudoeste 0 -- -- 76
2020-11-25 17:00:00 8.8 6 Nordeste 14 Este 0 -- -- 85
2020-11-25 16:00:00 8.8 8 Nordeste 13 Nordeste 0 -- -- 86
2020-11-25 15:00:00 8.8 6 Nordeste 12 Nordeste 0 -- -- 83
2020-11-25 14:00:00 8.8 2 Nordeste 12 Oeste 0 -- -- 82
2020-11-25 13:00:00 8.7 7 Sudeste 23 Sudeste 0 -- -- 74
2020-11-25 12:00:00 8.3 10 Sudeste 21 Sudeste 0 -- -- 74
2020-11-25 11:00:00 7.2 7 Sudeste 19 Sudeste 0 -- -- 80
2020-11-25 10:00:00 6.1 11 Sudeste 19 Sur 0 -- -- 84
2020-11-25 09:00:00 4.9 6 Sudeste 15 Este 0 -- -- 86
2020-11-25 08:00:00 4.4 5 Sudeste 13 Sudeste 0 -- -- 89
2020-11-25 07:00:00 4.1 5 Sur 13 Sudeste 0 -- -- 91
2020-11-25 06:00:00 3.4 6 Sur 19 Sur 0 -- -- 93
2020-11-25 05:00:00 3 7 Sur 12 Sur 0 -- -- 93
2020-11-25 04:00:00 3.1 7 Sudeste 14 Sudeste 0 -- -- 94
2020-11-25 03:00:00 0.5 4 Oeste 6 Oeste 0 -- -- 93
2020-11-25 02:00:00 1.5 0 Calma 4 Noroeste 0 -- -- 91
2020-11-25 01:00:00 2.8 0 Calma 7 Sudoeste 0 -- -- 90
2020-11-25 00:00:00 4.7 0 Calma 12 Sudoeste 0 -- -- 92
2020-11-24 23:00:00 1.8 6 Sudoeste 9 Sudoeste 0 -- -- 91
2020-11-24 22:00:00 2.6 3 Noroeste 6 Sudeste 0 -- -- 90
2020-11-24 21:00:00 3.7 0 Calma 6 Sudoeste 0 -- -- 89
2020-11-24 20:00:00 5 0 Calma 6 Sudoeste 0 -- -- 86
2020-11-24 19:00:00 7.2 0 Calma 8 Sudoeste 0 -- -- 83
2020-11-24 18:00:00 9.3 6 Sudoeste 12 Oeste 0 -- -- 78
2020-11-24 17:00:00 10.7 7 Oeste 22 Oeste 0 -- -- 74
2020-11-24 16:00:00 11.5 15 Oeste 22 Oeste 0 -- -- 72
2020-11-24 15:00:00 12.2 18 Oeste 26 Oeste 0 -- -- 68
2020-11-24 14:00:00 11.2 13 Oeste 22 Oeste 0 -- -- 73
2020-11-24 13:00:00 9.9 14 Oeste 22 Oeste 0 -- -- 73
2020-11-24 12:00:00 8.9 13 Oeste 19 Oeste 0 -- -- 78
2020-11-24 11:00:00 5.5 0 Calma 3 Oeste 0 -- -- 91
2020-11-24 10:00:00 1.3 0 Calma 5 Este 0 -- -- 95
2020-11-24 09:00:00 -0.9 4 Este 7 Este 0 -- -- 94
2020-11-24 08:00:00 -2.4 0 Calma 4 Nordeste 0 -- -- 93
2020-11-24 07:00:00 -1.6 0 Calma 5 Este 0 -- -- 93
2020-11-24 06:00:00 -1 3 Nordeste 5 Nordeste 0 -- -- 93
2020-11-24 05:00:00 -1.9 0 Calma 4 Sudeste 0 -- -- 92
2020-11-24 04:00:00 -1.4 2 Este 3 Este 0 -- -- 92
2020-11-24 03:00:00 -1 0 Calma 4 Este 0 -- -- 92
2020-11-24 02:00:00 -0.5 3 Nordeste 5 Nordeste 0 -- -- 92
2020-11-24 01:00:00 -1 0 Calma 2 Oeste 0 -- -- 90
2020-11-24 00:00:00 -0.7 0 Calma 4 Sur 0 -- -- 88
2020-11-23 23:00:00 0.2 0 Calma 0 Calma 0 -- -- 88
2020-11-23 22:00:00 1.3 0 Calma 4 Sur 0 -- -- 87
2020-11-23 21:00:00 2.2 0 Calma 2 Sur 0 -- -- 82
2020-11-23 20:00:00 3.9 0 Calma -- -- 0 -- -- 79
2020-11-23 19:00:00 6.2 0 Calma 4 Este 0 -- -- 71
2020-11-23 18:00:00 10.9 3 Este 3 Este 0 -- -- 64
2020-11-23 17:00:00 13.1 0 Calma 8 Nordeste 0 -- -- 54
2020-11-23 16:00:00 13.4 4 Nordeste 10 Norte 0 -- -- 54
2020-11-23 15:00:00 13.2 3 Norte 8 Nordeste 0 -- -- 55
2020-11-23 14:00:00 12.3 4 Norte 9 Nordeste 0 -- -- 59
2020-11-23 13:00:00 10.8 3 Nordeste 11 Nordeste 0 -- -- 68
2020-11-23 12:00:00 8.8 7 Nordeste 13 Nordeste 0 -- -- 75
2020-11-23 11:00:00 5.2 5 Nordeste 11 Nordeste 0 -- -- 90
2020-11-23 10:00:00 1.7 4 Este 8 Nordeste 0 -- -- 93
2020-11-23 09:00:00 -0.9 4 Este 8 Nordeste 0 -- -- 94
2020-11-23 08:00:00 -0.9 3 Nordeste 11 Nordeste 0 -- -- 94
2020-11-23 07:00:00 -1.4 0 Calma 8 Nordeste 0 -- -- 93
2020-11-23 06:00:00 -0.9 6 Este 10 Nordeste 0 -- -- 93
2020-11-23 05:00:00 -0.8 5 Este 11 Nordeste 0 -- -- 92
2020-11-23 04:00:00 -0.6 3 Este 8 Este 0 -- -- 92
2020-11-23 03:00:00 -0.1 5 Este 7 Nordeste 0 -- -- 92
2020-11-23 02:00:00 0.5 3 Nordeste 10 Este 0 -- -- 91
2020-11-23 01:00:00 0.9 7 Nordeste 11 Nordeste 0 -- -- 91
2020-11-23 00:00:00 1.9 4 Nordeste 10 Nordeste 0 -- -- 90
2020-11-22 23:00:00 1.4 2 Este 6 Este 0 -- -- 87
2020-11-22 22:00:00 3 4 Nordeste 6 Nordeste 0 -- -- 88
2020-11-22 21:00:00 3.6 5 Este 12 Nordeste 0 -- -- 83
2020-11-22 20:00:00 3.9 0 Calma 4 Sur 0 -- -- 80
2020-11-22 19:00:00 6.1 0 Calma 3 Sur 0 -- -- 75
2020-11-22 18:00:00 11 0 Calma 3 Sur 0 -- -- 59
2020-11-22 17:00:00 14 3 Sudoeste 8 Oeste 0 -- -- 49
2020-11-22 16:00:00 14 4 Oeste 11 Noroeste 0 -- -- 49
2020-11-22 15:00:00 14 4 Noroeste 12 Oeste 0 -- -- 46
2020-11-22 14:00:00 12.9 3 Oeste 10 Sudoeste 0 -- -- 53
2020-11-22 13:00:00 11.2 5 Sudoeste 10 Oeste 0 -- -- 57
2020-11-22 12:00:00 8.9 5 Sudoeste 9 Sudoeste 0 -- -- 67
2020-11-22 11:00:00 6.1 2 Oeste 9 Noroeste 0 -- -- 79
2020-11-22 10:00:00 2.8 0 Calma 6 Oeste 0 -- -- 91
2020-11-22 09:00:00 -1.8 0 Calma 3 Sudeste 0 -- -- 91
2020-11-22 08:00:00 -0.9 0 Calma 8 Nordeste 0 -- -- 91
2020-11-22 07:00:00 -1.3 4 Nordeste 5 Este 0 -- -- 92
2020-11-22 06:00:00 -1.2 3 Este 6 Este 0 -- -- 91
2020-11-22 05:00:00 -0.7 3 Nordeste 8 Nordeste 0 -- -- 91
2020-11-22 04:00:00 -0.6 2 Este 8 Este 0 -- -- 91
2020-11-22 03:00:00 -0.3 5 Este 8 Este 0 -- -- 90
2020-11-22 02:00:00 0.4 5 Este 9 Este 0 -- -- 89
2020-11-22 01:00:00 0.8 2 Nordeste 8 Este 0 -- -- 88
2020-11-22 00:00:00 1.2 3 Este 6 Este 0 -- -- 86
2020-11-21 23:00:00 1.9 5 Este 10 Nordeste 0 -- -- 84
2020-11-21 22:00:00 2.6 5 Nordeste 8 Nordeste 0 -- -- 84
2020-11-21 21:00:00 2.3 0 Calma 2 Noroeste 0 -- -- 79
2020-11-21 20:00:00 3.4 0 Calma 6 Oeste 0 -- -- 76
2020-11-21 19:00:00 6 0 Calma 3 Sur 0 -- -- 66
2020-11-21 18:00:00 11.2 0 Calma 4 Sudeste 0 -- -- 47
2020-11-21 17:00:00 13.6 3 Este 12 Este 0 -- -- 37
2020-11-21 16:00:00 13.7 7 Este 15 Nordeste 0 -- -- 35
2020-11-21 15:00:00 13.5 7 Nordeste 18 Nordeste 0 -- -- 35
2020-11-21 14:00:00 12.8 9 Nordeste 17 Nordeste 0 -- -- 35
2020-11-21 13:00:00 11.2 11 Nordeste 21 Nordeste 0 -- -- 38
2020-11-21 12:00:00 10 10 Este 21 Este 0 -- -- 44
2020-11-21 11:00:00 7 8 Este 13 Este 0 -- -- 57
2020-11-21 10:00:00 3.9 3 Este 10 Nordeste 0 -- -- 78
2020-11-21 09:00:00 0.5 5 Este 8 Nordeste 0 -- -- 88
2020-11-21 08:00:00 0.8 0 Calma 8 Nordeste 0 -- -- 85
2020-11-21 07:00:00 1.5 6 Este 12 Norte 0 -- -- 82
2020-11-21 06:00:00 2.5 5 Este 14 Nordeste 0 -- -- 79
2020-11-21 05:00:00 2.8 6 Nordeste 15 Nordeste 0 -- -- 81
2020-11-21 04:00:00 3.5 10 Nordeste 27 Nordeste 0 -- -- 83
2020-11-21 03:00:00 4.1 14 Nordeste 26 Nordeste 0 -- -- 83
2020-11-21 02:00:00 4.1 8 Este 26 Nordeste 0 -- -- 87
2020-11-21 01:00:00 4.5 15 Nordeste 26 Este 0 -- -- 86
2020-11-21 00:00:00 4.2 9 Este 15 Este 0 -- -- 86
2020-11-20 23:00:00 4.6 5 Nordeste 20 Este 0 -- -- 83
2020-11-20 22:00:00 5.1 8 Nordeste 21 Nordeste 0 -- -- 82
2020-11-20 21:00:00 6.3 8 Nordeste 26 Este 0 -- -- 77
2020-11-20 20:00:00 7.6 13 Este 28 Este 0 -- -- 74
2020-11-20 19:00:00 7.5 0 Calma 12 Este 0 -- -- 74
2020-11-20 18:00:00 9.7 7 Nordeste 22 Este 0 -- -- 67
2020-11-20 17:00:00 11.3 13 Este 27 Este 0 -- -- 60
2020-11-20 16:00:00 11.7 14 Este 31 Este 0 -- -- 58
2020-11-20 15:00:00 11.8 15 Este 31 Este 0 -- -- 60
2020-11-20 14:00:00 11.1 17 Este 31 Este 0 -- -- 61
2020-11-20 13:00:00 10.2 15 Este 28 Nordeste 0 -- -- 67
2020-11-20 12:00:00 8.8 15 Este 28 Este 0 -- -- 72
2020-11-20 11:00:00 7.2 16 Este 28 Este 0 -- -- 77
2020-11-20 10:00:00 4.8 8 Nordeste 14 Nordeste 0 -- -- 92
2020-11-20 09:00:00 2.6 3 Nordeste 6 Nordeste 0 -- -- 93
2020-11-20 08:00:00 2.7 3 Nordeste 9 Este 0 -- -- 92
2020-11-20 07:00:00 3.2 5 Nordeste 13 Nordeste 0 -- -- 90
2020-11-20 06:00:00 4.4 7 Nordeste 23 Este 0 -- -- 88
2020-11-20 05:00:00 4.7 8 Nordeste 17 Nordeste 0 -- -- 89
2020-11-20 04:00:00 4.2 2 Este 8 Nordeste 0 -- -- 89
2020-11-20 03:00:00 5.9 5 Nordeste 24 Este 0 -- -- 86
2020-11-20 02:00:00 7.3 13 Este 35 Este 0 -- -- 82
2020-11-20 01:00:00 8.2 9 Nordeste 19 Nordeste 0 -- -- 84
2020-11-20 00:00:00 7.5 7 Nordeste 18 Nordeste 0 -- -- 87
2020-11-19 23:00:00 7.9 7 Este 21 Este 0 -- -- 88
2020-11-19 22:00:00 8.2 9 Nordeste 17 Nordeste 0 -- -- 88
2020-11-19 21:00:00 9 6 Norte 22 Este 0 -- -- 85
2020-11-19 20:00:00 9.9 17 Este 34 Este 0 -- -- 84
2020-11-19 19:00:00 12.4 13 Este 25 Este 0 -- -- 80
2020-11-19 18:00:00 14.2 5 Este 13 Este 0 -- -- 77
2020-11-19 17:00:00 16 8 Nordeste 18 Nordeste 0 -- -- 71
2020-11-19 16:00:00 16.8 6 Nordeste 14 Nordeste 0 -- -- 69
2020-11-19 15:00:00 16.7 6 Este 15 Nordeste 0 -- -- 70
2020-11-19 14:00:00 16.4 9 Este 18 Este 0 -- -- 72
2020-11-19 13:00:00 15.8 8 Nordeste 17 Este 0 -- -- 76
2020-11-19 12:00:00 14.2 6 Este 21 Este 0 -- -- 85
2020-11-19 11:00:00 11 10 Nordeste 19 Nordeste 0 -- -- 97
2020-11-19 10:00:00 7.4 5 Nordeste 12 Nordeste 0 -- -- 98
2020-11-19 09:00:00 5.3 2 Sudeste 13 Sur 0 -- -- 97
2020-11-19 08:00:00 5.4 7 Este 21 Nordeste 0 -- -- 97
2020-11-19 07:00:00 5 4 Este 10 Nordeste 0 -- -- 97
2020-11-19 06:00:00 4.6 5 Sudeste 14 Nordeste 0 -- -- 96
2020-11-19 05:00:00 4.5 3 Este 9 Nordeste 0 -- -- 96
2020-11-19 04:00:00 5.2 5 Nordeste 8 Nordeste 0 -- -- 96
2020-11-19 03:00:00 5.2 2 Nordeste 5 Sudeste 0 -- -- 95
2020-11-19 02:00:00 5.8 2 Nordeste 8 Nordeste 0 -- -- 95
2020-11-19 01:00:00 7.1 5 Nordeste 9 Este 0 -- -- 95
2020-11-19 00:00:00 7.2 6 Este 9 Este 0 -- -- 94
2020-11-18 23:00:00 7.9 3 Este 9 Este 0 -- -- 93
2020-11-18 22:00:00 8.9 3 Nordeste 9 Nordeste 0 -- -- 93
2020-11-18 21:00:00 9.3 5 Nordeste 10 Este 0 -- -- 92
2020-11-18 20:00:00 9 0 Calma 6 Sur 0 -- -- 86
2020-11-18 19:00:00 11.3 3 Sur 5 Nordeste 0 -- -- 83
2020-11-18 18:00:00 15.2 6 Nordeste 8 Nordeste 0 -- -- 75
2020-11-18 17:00:00 17.8 0 Calma 5 Noroeste 0 -- -- 61
2020-11-18 16:00:00 17.5 2 Sur 6 Sur 0 -- -- 65
2020-11-18 15:00:00 16.4 2 Este 12 Norte 0 -- -- 70
2020-11-18 14:00:00 16 6 Norte 12 Nordeste 0 -- -- 73
2020-11-18 13:00:00 15.1 4 Norte 9 Nordeste 0 -- -- 76
2020-11-18 12:00:00 12.5 5 Nordeste 10 Nordeste 0 -- -- 84
2020-11-18 11:00:00 9.5 6 Nordeste 10 Nordeste 0 -- -- 94
2020-11-18 10:00:00 6.6 6 Nordeste 10 Nordeste 0 -- -- 97
2020-11-18 09:00:00 4.1 8 Nordeste 12 Nordeste 0 -- -- 97
2020-11-18 08:00:00 2.8 2 Sur 5 Sur 0 -- -- 97
2020-11-18 07:00:00 2.5 0 Calma 0 Calma 0 -- -- 96
2020-11-18 06:00:00 2.5 0 Calma 0 Calma 0 -- -- 95
2020-11-18 05:00:00 2.6 0 Calma 0 Calma 0 -- -- 96
2020-11-18 04:00:00 2.7 0 Calma 3 Este 0 -- -- 95
2020-11-18 03:00:00 3.8 0 Calma 5 Nordeste 0 -- -- 95
2020-11-18 02:00:00 4.2 3 Nordeste 5 Nordeste 0 -- -- 96
2020-11-18 01:00:00 3.3 0 Calma 4 Este 0 -- -- 95
2020-11-18 00:00:00 5.2 2 Nordeste 5 Este 0 -- -- 95
2020-11-17 23:00:00 5.1 3 Este 4 Este 0 -- -- 94
2020-11-17 22:00:00 5.6 0 Calma 4 Este 0 -- -- 94
2020-11-17 21:00:00 5.9 0 Calma -- -- 0 -- -- 91
2020-11-17 20:00:00 7.4 0 Calma 0 Calma 0 -- -- 88
2020-11-17 19:00:00 9.9 0 Calma 4 Sudoeste 0 -- -- 87
2020-11-17 18:00:00 13.2 4 Sudoeste 8 Sudoeste 0 -- -- 80
2020-11-17 17:00:00 16.1 7 Oeste 10 Oeste 0 -- -- 75
2020-11-17 16:00:00 16.7 3 Oeste 11 Oeste 0 -- -- 69
2020-11-17 15:00:00 16 4 Oeste 10 Oeste 0 -- -- 73
2020-11-17 14:00:00 14.8 5 Oeste 9 Oeste 0 -- -- 76
2020-11-17 13:00:00 13.2 0 Calma 12 Oeste 0 -- -- 82
2020-11-17 12:00:00 10.9 2 Noroeste 5 Oeste 0 -- -- 96
2020-11-17 11:00:00 6.8 2 Norte 5 Nordeste 0 -- -- 98
2020-11-17 10:00:00 3.9 3 Nordeste 5 Nordeste 0 -- -- 98
2020-11-17 09:00:00 2.1 0 Calma 7 Nordeste 0 -- -- 97
2020-11-17 08:00:00 1.7 3 Nordeste 5 Nordeste 0 -- -- 96
2020-11-17 07:00:00 2.2 3 Este 7 Este 0 -- -- 96
2020-11-17 06:00:00 2.5 3 Nordeste 9 Nordeste 0 -- -- 96
2020-11-17 05:00:00 3 6 Nordeste 10 Este 0 -- -- 95
2020-11-17 04:00:00 3.4 4 Este 6 Este 0 -- -- 96
2020-11-17 03:00:00 3.8 4 Este 6 Este 0 -- -- 95
2020-11-17 02:00:00 4.6 5 Este 7 Este 0 -- -- 95
2020-11-17 01:00:00 5.1 5 Nordeste 7 Nordeste 0 -- -- 94
2020-11-17 00:00:00 5.2 5 Nordeste 8 Este 0 -- -- 94
2020-11-16 23:00:00 4.9 0 Calma 5 Noroeste 0 -- -- 92
2020-11-16 22:00:00 5.5 4 Sur 6 Sur 0 -- -- 91
2020-11-16 21:00:00 6.4 0 Calma 2 Este 0 -- -- 89
2020-11-16 20:00:00 7.8 0 Calma 4 Sudeste 0 -- -- 87
2020-11-16 19:00:00 9.9 2 Sudeste 5 Este 0 -- -- 81
2020-11-16 18:00:00 13.1 4 Noroeste 8 Noroeste 0 -- -- 71
2020-11-16 17:00:00 15.2 5 Oeste 12 Norte 0 -- -- 64
2020-11-16 16:00:00 15 7 Oeste 14 Oeste 0 -- -- 63
2020-11-16 15:00:00 15.1 8 Oeste 18 Oeste 0 -- -- 63
2020-11-16 14:00:00 15.2 4 Oeste 11 Oeste 0 -- -- 65
2020-11-16 13:00:00 14.4 5 Oeste 13 Oeste 0 -- -- 67
2020-11-16 12:00:00 14 6 Sudoeste 10 Oeste 0 -- -- 70
2020-11-16 11:00:00 12.5 0 Calma 6 Oeste 0 -- -- 79
2020-11-16 10:00:00 10.8 0 Calma 5 Este 0 -- -- 87
2020-11-16 09:00:00 8.7 4 Sur 6 Sur 0 -- -- 95
2020-11-16 08:00:00 8.9 0 Calma 8 Nordeste 0 -- -- 95
2020-11-16 07:00:00 9.2 0 Calma 4 Sudoeste 0 -- -- 96
2020-11-16 06:00:00 9.3 0 Calma 4 Noroeste 0 -- -- 95
2020-11-16 05:00:00 10.4 3 Oeste 7 Sudoeste 0 -- -- 94
2020-11-16 04:00:00 11.1 0 Calma 7 Noroeste 0 -- -- 94
2020-11-16 03:00:00 11.6 3 Noroeste 8 Oeste 0 -- -- 93
2020-11-16 02:00:00 12.1 6 Oeste 16 Oeste 0 -- -- 93
2020-11-16 01:00:00 12.6 2 Oeste 14 Sudoeste 0 -- -- 93
2020-11-16 00:00:00 13.1 5 Oeste 18 Oeste 0 -- -- 92
2020-11-15 23:00:00 13.5 11 Oeste 24 Oeste 0 -- -- 91
2020-11-15 22:00:00 13.8 13 Oeste 19 Oeste 0 -- -- 90
2020-11-15 21:00:00 14.1 11 Oeste 27 Oeste 0 -- -- 88
2020-11-15 20:00:00 14.3 16 Oeste 28 Oeste 0 -- -- 87
2020-11-15 19:00:00 14.6 16 Oeste 33 Sudoeste 0 -- -- 87
2020-11-15 18:00:00 15 14 Oeste 36 Oeste 0 -- -- 85
2020-11-15 17:00:00 15.6 23 Oeste 37 Oeste 0 -- -- 82
2020-11-15 16:00:00 16.1 24 Oeste 45 Oeste 0 -- -- 81
2020-11-15 15:00:00 16.8 32 Oeste 49 Oeste 0 -- -- 79
2020-11-15 14:00:00 15.9 24 Oeste 47 Oeste 0 -- -- 84
2020-11-15 13:00:00 15.7 28 Oeste 46 Oeste 0 -- -- 86
2020-11-15 12:00:00 15 28 Oeste 49 Oeste 0 -- -- 87
2020-11-15 11:00:00 14.2 20 Oeste 36 Sudoeste 0 -- -- 90
2020-11-15 10:00:00 14 22 Sudoeste 36 Oeste 0 -- -- 89
2020-11-15 09:00:00 13.5 19 Sudoeste 37 Oeste 0 -- -- 92
2020-11-15 08:00:00 12.7 22 Sudoeste 36 Sudoeste 0 -- -- 91
2020-11-15 07:00:00 12.8 23 Oeste 35 Oeste 0 -- -- 91
2020-11-15 06:00:00 12 14 Sudoeste 27 Sudoeste 0 -- -- 91
2020-11-15 05:00:00 12 17 Sudoeste 24 Sudoeste 0 -- -- 89
2020-11-15 04:00:00 11.6 14 Sudoeste 28 Sudoeste 0 -- -- 90
2020-11-15 03:00:00 11.9 16 Sudoeste 25 Sudoeste 0 -- -- 89
2020-11-15 02:00:00 11.7 19 Sudoeste 27 Sudoeste 0 -- -- 89
2020-11-15 01:00:00 11.6 12 Sudoeste 20 Sudoeste 0 -- -- 90
2020-11-15 00:00:00 11.4 14 Sudoeste 24 Sudoeste 0 -- -- 91
2020-11-14 23:00:00 11.7 14 Sudoeste 24 Sudoeste 0 -- -- 91
2020-11-14 22:00:00 12.4 13 Sudoeste 22 Sudoeste 0 -- -- 91
2020-11-14 21:00:00 12.1 7 Sudoeste 16 Sudoeste 0 -- -- 92
2020-11-14 20:00:00 12.3 7 Sudoeste 12 Sur 0 -- -- 93
2020-11-14 19:00:00 12.3 3 Sudoeste 8 Sur 0 -- -- 92
2020-11-14 18:00:00 12.9 5 Sudoeste 14 Oeste 0.2 -- -- 91
2020-11-14 17:00:00 14 7 Oeste 13 Oeste 0 -- -- 85
2020-11-14 16:00:00 14.1 0 Calma 6 Oeste 0 -- -- 82
2020-11-14 15:00:00 13.1 3 Noroeste 6 Noroeste 0 -- -- 86
2020-11-14 14:00:00 11.7 2 Oeste 8 Noroeste 0 -- -- 94
2020-11-14 13:00:00 10.7 3 Oeste 6 Nordeste 0 -- -- 97
2020-11-14 12:00:00 9.1 4 Nordeste 8 Nordeste 0 -- -- 98
2020-11-14 11:00:00 7.8 3 Norte 11 Nordeste 0 -- -- 98
2020-11-14 10:00:00 6.2 4 Nordeste 11 Nordeste 0 -- -- 98
2020-11-14 09:00:00 5.2 5 Nordeste 12 Nordeste 0 -- -- 98
2020-11-14 08:00:00 5 5 Nordeste 9 Nordeste 0 -- -- 97
2020-11-14 07:00:00 5 5 Este 7 Este 0 -- -- 98
2020-11-14 06:00:00 4.5 2 Este 7 Nordeste 0 -- -- 97
2020-11-14 05:00:00 4 4 Nordeste 8 Este 0 -- -- 97
2020-11-14 04:00:00 3.6 4 Este 7 Este 0 -- -- 97
2020-11-14 03:00:00 3.5 3 Este 5 Este 0 -- -- 97
2020-11-14 02:00:00 4 0 Calma 6 Nordeste 0 -- -- 97
2020-11-14 01:00:00 4.1 3 Este 5 Nordeste 0 -- -- 97
2020-11-14 00:00:00 4.4 3 Nordeste 5 Sudeste 0 -- -- 97
2020-11-13 23:00:00 4.8 4 Sudeste 5 Nordeste 0 -- -- 96
2020-11-13 22:00:00 6.3 2 Nordeste 4 Nordeste 0 -- -- 96
2020-11-13 21:00:00 7.1 3 Este 5 Este 0 -- -- 96
2020-11-13 20:00:00 7.7 0 Calma 8 Sudeste 0 -- -- 95
2020-11-13 19:00:00 8.4 0 Calma 5 Noroeste 0 -- -- 95
2020-11-13 18:00:00 9 0 Calma 11 Oeste 0 -- -- 93
2020-11-13 17:00:00 10 9 Noroeste 17 Oeste 0 -- -- 91
2020-11-13 16:00:00 12 12 Oeste 20 Oeste 0 -- -- 87
2020-11-13 15:00:00 12.3 5 Nordeste 10 Norte 0 -- -- 88
2020-11-13 14:00:00 10.7 5 Nordeste 10 Nordeste 0 -- -- 97
2020-11-13 13:00:00 9.5 8 Noroeste 12 Noroeste 0 -- -- 97
2020-11-13 12:00:00 7.6 3 Sudeste 8 Sur 0 -- -- 98
2020-11-13 11:00:00 7 4 Oeste 8 Oeste 0 -- -- 98
2020-11-13 10:00:00 6.3 3 Sur 6 Sudoeste 0 -- -- 97
2020-11-13 09:00:00 5.5 0 Calma 7 Oeste 0.2 -- -- 97
2020-11-13 08:00:00 5.4 5 Oeste 11 Oeste 0 -- -- 97
2020-11-13 07:00:00 5.4 7 Oeste 11 Oeste 0 -- -- 97
2020-11-13 06:00:00 5.3 4 Sur 7 Sudeste 0 -- -- 97
2020-11-13 05:00:00 6.1 2 Sudeste 5 Sudoeste 0 -- -- 96
2020-11-13 04:00:00 6 2 Oeste 6 Este 0 -- -- 97
2020-11-13 03:00:00 5.5 5 Este 7 Este 0 -- -- 96
2020-11-13 02:00:00 5.6 0 Calma 3 Sur 0 -- -- 96
2020-11-13 01:00:00 6.5 3 Sudeste 5 Sudeste 0 -- -- 95
2020-11-13 00:00:00 6.7 2 Sur 3 Sur 0 -- -- 95
2020-11-12 23:00:00 6.9 0 Calma -- -- 0 -- -- 95
2020-11-12 22:00:00 7.7 0 Calma -- -- 0 -- -- 94
2020-11-12 21:00:00 8 0 Calma 3 Noroeste 0 -- -- 93
2020-11-12 20:00:00 8.5 4 Noroeste 6 Noroeste 0 -- -- 92
2020-11-12 19:00:00 9.5 0 Calma 4 Sur 0 -- -- 90
2020-11-12 18:00:00 11.4 0 Calma 8 Norte 0 -- -- 85
2020-11-12 17:00:00 12.9 5 Norte 10 Noroeste 0 -- -- 82
2020-11-12 16:00:00 13.3 4 Nordeste 9 Nordeste 0 -- -- 81
2020-11-12 15:00:00 12 5 Nordeste 12 Norte 0 -- -- 87
2020-11-12 14:00:00 10.8 8 Norte 13 Norte 0 -- -- 90
2020-11-12 13:00:00 10.3 4 Noroeste 8 Oeste 0 -- -- 94
2020-11-12 12:00:00 8.7 4 Oeste 9 Noroeste 0 -- -- 95
2020-11-12 11:00:00 8.7 8 Noroeste 14 Noroeste 0 -- -- 95
2020-11-12 10:00:00 7 3 Noroeste 4 Noroeste 0 -- -- 97
2020-11-12 09:00:00 3.7 2 Nordeste 5 Noroeste 0 -- -- 96
2020-11-12 08:00:00 2.9 0 Calma 5 Noroeste 0 -- -- 95
2020-11-12 07:00:00 3.9 0 Calma 5 Nordeste 0 -- -- 94
2020-11-12 06:00:00 5.2 5 Nordeste 7 Nordeste 0 -- -- 95
2020-11-12 05:00:00 6.1 6 Nordeste 10 Nordeste 0 -- -- 94
2020-11-12 04:00:00 6.5 6 Nordeste 9 Este 0 -- -- 94
2020-11-12 03:00:00 6.1 4 Nordeste 6 Nordeste 0 -- -- 93
2020-11-12 02:00:00 7.1 0 Calma 8 Sur 0 -- -- 91
2020-11-12 01:00:00 7.9 4 Sur 9 Sur 0 -- -- 91
2020-11-12 00:00:00 7.8 6 Sur 12 Sur 0 -- -- 92
2020-11-11 23:00:00 7.8 3 Sur 13 Sudeste 0 -- -- 91
2020-11-11 22:00:00 8.3 7 Sudeste 13 Sudeste 0 -- -- 91
2020-11-11 21:00:00 8.6 7 Sur 14 Sudeste 0 -- -- 91
2020-11-11 20:00:00 8.5 8 Sur 14 Sudeste 0 -- -- 91
2020-11-11 19:00:00 8.4 3 Sur 9 Sudoeste 0 -- -- 91
2020-11-11 18:00:00 8.7 5 Sur 7 Sur 0 -- -- 88
2020-11-11 17:00:00 9.3 2 Sudoeste 6 Sudoeste 0 -- -- 87
2020-11-11 16:00:00 9.6 5 Sudoeste 10 Oeste 0 -- -- 87
2020-11-11 15:00:00 9.2 4 Sudoeste 8 Sudoeste 0 -- -- 89
2020-11-11 14:00:00 8.7 4 Oeste 12 Noroeste 0 -- -- 91
2020-11-11 13:00:00 7.8 7 Noroeste 13 Norte 0 -- -- 92
2020-11-11 12:00:00 7.3 2 Noroeste 13 Sur 0 -- -- 92
2020-11-11 11:00:00 7.2 9 Sur 15 Sur 0 -- -- 93
2020-11-11 10:00:00 7.2 9 Sur 14 Sur 0 -- -- 93
2020-11-11 09:00:00 7.5 8 Sudeste 12 Sudeste 0 -- -- 94
2020-11-11 08:00:00 7.6 2 Sudeste 9 Sudeste 0 -- -- 95
2020-11-11 07:00:00 7.8 5 Este 9 Este 0 -- -- 95
2020-11-11 06:00:00 7.9 4 Este 8 Nordeste 0 -- -- 95
2020-11-11 05:00:00 7.8 0 Calma 3 Noroeste 0 -- -- 96
2020-11-11 04:00:00 7.5 0 Calma 3 Oeste 0 -- -- 96
2020-11-11 03:00:00 7.2 0 Calma 6 Sur 0 -- -- 96
2020-11-11 02:00:00 6.7 0 Calma 6 Sudeste 0 -- -- 95
2020-11-11 01:00:00 5.9 2 Sur 5 Sur 0 -- -- 95
2020-11-11 00:00:00 5.3 3 Sur 6 Sudeste 0 -- -- 93
2020-11-10 23:00:00 5.8 5 Sudeste 6 Sur 0 -- -- 91
2020-11-10 22:00:00 7.9 0 Calma 11 Este 0 -- -- 89
2020-11-10 21:00:00 8.5 6 Nordeste 11 Este 0 -- -- 89
2020-11-10 20:00:00 8.7 4 Nordeste 10 Nordeste 0 -- -- 89
2020-11-10 19:00:00 9 2 Este 8 Nordeste 0 -- -- 90
2020-11-10 18:00:00 9.2 4 Nordeste 10 Este 0 -- -- 90
2020-11-10 17:00:00 9.4 6 Nordeste 9 Nordeste 0 -- -- 91
2020-11-10 16:00:00 9.3 6 Este 10 Sudeste 0 -- -- 93
2020-11-10 15:00:00 9.2 2 Norte 8 Norte 0 -- -- 95
2020-11-10 14:00:00 9 4 Este 9 Este 0 -- -- 96
2020-11-10 13:00:00 8.5 0 Calma 8 Este 0 -- -- 97
2020-11-10 12:00:00 7.7 4 Sudeste 8 Este 0 -- -- 97
2020-11-10 11:00:00 6.8 2 Oeste 5 Nordeste 0 -- -- 97
2020-11-10 10:00:00 6 0 Calma 5 Oeste 0 -- -- 97
2020-11-10 09:00:00 5.5 3 Oeste 6 Sudoeste 0 -- -- 97
2020-11-10 08:00:00 5.4 5 Sur 11 Sur 0 -- -- 96
2020-11-10 07:00:00 6.2 4 Sur 7 Sur 0 -- -- 96
2020-11-10 06:00:00 6.9 5 Sudoeste 9 Oeste 0 -- -- 96
2020-11-10 05:00:00 7.2 5 Sudoeste 10 Sudoeste 0 -- -- 96
2020-11-10 04:00:00 6.5 0 Calma 3 Sudoeste 0 -- -- 96
2020-11-10 03:00:00 4.4 2 Noroeste 5 Noroeste 0 -- -- 96
2020-11-10 02:00:00 3.8 3 Noroeste 5 Oeste 0 -- -- 95
2020-11-10 01:00:00 4.7 0 Calma 4 Oeste 0 -- -- 94
2020-11-10 00:00:00 5 0 Calma 4 Oeste 0 -- -- 94
2020-11-09 23:00:00 5.7 0 Calma 4 Noroeste 0 -- -- 93
2020-11-09 22:00:00 6.5 3 Oeste 4 Oeste 0 -- -- 92
2020-11-09 21:00:00 7.8 0 Calma 4 Sur 0 -- -- 91
2020-11-09 20:00:00 9 0 Calma 4 Norte 0 -- -- 90
2020-11-09 19:00:00 9.7 0 Calma 11 Sudoeste 0 -- -- 86
2020-11-09 18:00:00 12.2 6 Sudoeste 15 Oeste 0 -- -- 81
2020-11-09 17:00:00 13.5 10 Oeste 24 Sudoeste 0 -- -- 78
2020-11-09 16:00:00 14.1 11 Oeste 17 Oeste 0 -- -- 78
2020-11-09 15:00:00 13 10 Oeste 19 Oeste 0 -- -- 81
2020-11-09 14:00:00 13.1 12 Oeste 22 Oeste 0 -- -- 79
2020-11-09 13:00:00 13 15 Oeste 21 Oeste 0 -- -- 82
2020-11-09 12:00:00 11.6 13 Oeste 21 Oeste 0 -- -- 89
2020-11-09 11:00:00 11.5 11 Oeste 19 Oeste 0 -- -- 91
2020-11-09 10:00:00 10.5 9 Sudoeste 18 Sudoeste 0 -- -- 95
2020-11-09 09:00:00 9.3 0 Calma 5 Sudoeste 0 -- -- 95
2020-11-09 08:00:00 9.2 3 Sur 6 Sur 0.2 -- -- 95
2020-11-09 07:00:00 8.8 0 Calma 4 Sudeste 0.2 -- -- 95
2020-11-09 06:00:00 8.1 3 Norte 5 Norte 0 -- -- 94
2020-11-09 05:00:00 8.2 3 Sur 5 Sudeste 0 -- -- 92
2020-11-09 04:00:00 9.7 4 Oeste 8 Oeste 0 -- -- 92
2020-11-09 03:00:00 10 5 Sudoeste 13 Sudoeste 0.2 -- -- 92
2020-11-09 02:00:00 9.9 5 Sudoeste 19 Oeste 1.2 -- -- 92
2020-11-09 01:00:00 10.2 10 Sudoeste 21 Sur 0.2 -- -- 89
2020-11-09 00:00:00 10.5 13 Sudoeste 24 Sudoeste 0 -- -- 88
2020-11-08 23:00:00 10.3 14 Sur 24 Sur 0.2 -- -- 88
2020-11-08 22:00:00 10.6 12 Sudoeste 25 Sur 0.4 -- -- 87
2020-11-08 21:00:00 10.5 8 Sudoeste 26 Sur 0.6 -- -- 88
2020-11-08 20:00:00 10.7 15 Sur 31 Oeste 1 -- -- 88
2020-11-08 19:00:00 10.9 8 Sudoeste 17 Sudoeste 1.2 -- -- 85
2020-11-08 18:00:00 11.7 9 Sudoeste 27 Sudoeste 0 -- -- 80
2020-11-08 17:00:00 12.9 15 Sudoeste 27 Sudoeste 0 -- -- 83
2020-11-08 16:00:00 13.1 13 Sudoeste 27 Sudoeste 0 -- -- 84
2020-11-08 15:00:00 12.6 13 Sudoeste 26 Sudoeste 1.4 -- -- 86
2020-11-08 14:00:00 13.2 20 Sudoeste 39 Sudoeste 0.4 -- -- 80
2020-11-08 13:00:00 14.8 15 Sudoeste 29 Sudoeste 0 -- -- 69
2020-11-08 12:00:00 13.3 8 Sudoeste 21 Sur 0 -- -- 75
2020-11-08 11:00:00 11.8 9 Sudeste 16 Sur 0 -- -- 80
2020-11-08 10:00:00 9.5 9 Sudeste 17 Sudeste 0 -- -- 86
2020-11-08 09:00:00 7.5 6 Sudeste 10 Sudeste 0 -- -- 88
2020-11-08 08:00:00 7.7 6 Sudeste 17 Sur 0 -- -- 87
2020-11-08 07:00:00 8.3 13 Sur 25 Sur 0 -- -- 86
2020-11-08 06:00:00 8.9 13 Sur 19 Sur 0 -- -- 88
2020-11-08 05:00:00 9 9 Sur 14 Sudoeste 0.2 -- -- 87
2020-11-08 04:00:00 9.3 11 Sur 18 Sur 0 -- -- 84
2020-11-08 03:00:00 11 9 Sur 21 Sudoeste 0 -- -- 79
2020-11-08 02:00:00 10.9 11 Sudoeste 18 Sudoeste 0 -- -- 81
2020-11-08 01:00:00 9.1 7 Sur 14 Sur 0 -- -- 89
2020-11-08 00:00:00 8.8 5 Sudeste 15 Sur 0 -- -- 87
2020-11-07 23:00:00 10 6 Sudoeste 22 Sudoeste 0 -- -- 83
2020-11-07 22:00:00 10.5 14 Sudoeste 25 Sudoeste 0 -- -- 84
2020-11-07 21:00:00 10.4 12 Sudoeste 26 Sudoeste 0 -- -- 83
2020-11-07 20:00:00 10.2 8 Sudoeste 10 Sudoeste 0 -- -- 82
2020-11-07 19:00:00 11.8 8 Sudoeste 18 Sudoeste 0 -- -- 80
2020-11-07 18:00:00 13 11 Oeste 24 Oeste 0 -- -- 76
2020-11-07 17:00:00 13.8 13 Oeste 32 Oeste 0 -- -- 74
2020-11-07 16:00:00 14.6 23 Oeste 34 Oeste 0 -- -- 72
2020-11-07 15:00:00 14.1 20 Oeste 33 Oeste 0 -- -- 74
2020-11-07 14:00:00 14.2 21 Oeste 32 Oeste 0 -- -- 76
2020-11-07 13:00:00 13.4 19 Oeste 35 Sudoeste 0 -- -- 83
2020-11-07 12:00:00 12.2 15 Oeste 33 Oeste 2 -- -- 91
2020-11-07 11:00:00 12.4 18 Oeste 28 Oeste 0 -- -- 85
2020-11-07 10:00:00 12 16 Sudoeste 24 Sudoeste 0 -- -- 85
2020-11-07 09:00:00 10.8 9 Sudoeste 17 Sudoeste 0 -- -- 86
2020-11-07 08:00:00 10.5 6 Sur 10 Sur 0.2 -- -- 90
2020-11-07 07:00:00 11.1 6 Sudoeste 11 Sur 0.2 -- -- 88
2020-11-07 06:00:00 11.3 6 Sur 19 Sur 0 -- -- 87
2020-11-07 05:00:00 11.1 8 Sur 28 Sur 0 -- -- 87
2020-11-07 04:00:00 11.4 16 Sur 25 Sur 0 -- -- 85
2020-11-07 03:00:00 12.1 13 Sur 25 Sur 0 -- -- 85
2020-11-07 02:00:00 11.3 7 Sudeste 15 Sur 0.2 -- -- 92
2020-11-07 01:00:00 10.9 6 Sudeste 10 Sudeste 0 -- -- 92
2020-11-07 00:00:00 11.6 5 Sur 26 Sur 5.4 -- -- 89
2020-11-06 23:00:00 12.3 9 Oeste 32 Sur 0 -- -- 87
2020-11-06 22:00:00 12 15 Sudeste 31 Sur 0.2 -- -- 86
2020-11-06 21:00:00 12.3 28 Sur 60 Sur 4.6 -- -- 86
2020-11-06 20:00:00 14.4 11 Sur 20 Sudeste 0.6 -- -- 80
2020-11-06 19:00:00 15.4 9 Sudeste 15 Sudeste 0 -- -- 72
2020-11-06 18:00:00 15.7 9 Sudeste 21 Sudeste 0 -- -- 73
2020-11-06 17:00:00 16.4 12 Sudeste 25 Sur 0 -- -- 69
2020-11-06 16:00:00 16.4 10 Sudeste 22 Sudeste 0 -- -- 70
2020-11-06 15:00:00 15.8 15 Sudeste 34 Sudeste 0 -- -- 72
2020-11-06 14:00:00 14.8 15 Sudeste 38 Sudeste 0 -- -- 73
2020-11-06 13:00:00 14.2 19 Sudeste 40 Sudeste 0 -- -- 75
2020-11-06 12:00:00 13.5 20 Sudeste 39 Este 0 -- -- 79
2020-11-06 11:00:00 13.1 18 Sudeste 33 Sudeste 0 -- -- 77
2020-11-06 10:00:00 12.7 15 Sudeste 34 Sur 0 -- -- 77
2020-11-06 09:00:00 11.9 27 Sur 48 Sudeste 0 -- -- 78
2020-11-06 08:00:00 11.3 26 Sur 40 Sudeste 0 -- -- 80
2020-11-06 07:00:00 10.6 15 Sur 26 Sur 0 -- -- 84
2020-11-06 06:00:00 11.1 23 Sur 35 Sur 0 -- -- 82
2020-11-06 05:00:00 10.9 13 Sudeste 31 Sudeste 0 -- -- 84
2020-11-06 04:00:00 10.4 15 Sudeste 32 Sudeste 0 -- -- 86
2020-11-06 03:00:00 9.9 14 Sudeste 31 Sudeste 0 -- -- 87
2020-11-06 02:00:00 10 15 Sudeste 31 Sudeste 0 -- -- 87
2020-11-06 01:00:00 10.1 16 Sudeste 26 Sudeste 0 -- -- 88
2020-11-06 00:00:00 10.8 14 Sudeste 29 Sudeste 0 -- -- 87
2020-11-05 23:00:00 10.8 10 Sudeste 32 Sudeste 0 -- -- 87
2020-11-05 22:00:00 11.2 19 Sudeste 40 Este 0 -- -- 84
2020-11-05 21:00:00 10.9 21 Sudeste 41 Sudeste 0 -- -- 87
2020-11-05 20:00:00 10.9 14 Este 31 Sudeste 0 -- -- 87
2020-11-05 19:00:00 11.7 15 Este 34 Sudeste 0 -- -- 81
2020-11-05 18:00:00 11.8 18 Este 37 Este 0 -- -- 79
2020-11-05 17:00:00 11.8 13 Este 31 Sudeste 0 -- -- 78
2020-11-05 16:00:00 12.3 14 Este 28 Este 0 -- -- 75
2020-11-05 15:00:00 12.3 13 Este 33 Sudeste 0 -- -- 73
2020-11-05 14:00:00 12 17 Este 40 Este 0 -- -- 73
2020-11-05 13:00:00 12.8 18 Este 36 Este 0 -- -- 71
2020-11-05 12:00:00 11.6 20 Este 42 Sudeste 0 -- -- 75
2020-11-05 11:00:00 9.7 21 Este 36 Este 0 -- -- 83
2020-11-05 10:00:00 7.5 26 Este 41 Este 0 -- -- 89
2020-11-05 09:00:00 6.3 27 Este 46 Este 0 -- -- 91
2020-11-05 08:00:00 5.7 26 Este 44 Este 0 -- -- 91
2020-11-05 07:00:00 5.6 23 Este 41 Este 0 -- -- 90
2020-11-05 06:00:00 5.7 21 Este 39 Este 0 -- -- 90
2020-11-05 05:00:00 5.7 22 Este 44 Este 0 -- -- 89
2020-11-05 04:00:00 5.5 26 Este 48 Este 0 -- -- 88
2020-11-05 03:00:00 5.7 32 Este 49 Este 0 -- -- 87
2020-11-05 02:00:00 5.4 30 Este 50 Este 0 -- -- 87
2020-11-05 01:00:00 5.1 25 Este 46 Este 0 -- -- 86
2020-11-05 00:00:00 5 23 Este 42 Este 0 -- -- 86
2020-11-04 23:00:00 5.1 22 Este 54 Este 0 -- -- 85
2020-11-04 22:00:00 5.5 25 Este 48 Este 0 -- -- 85
2020-11-04 21:00:00 5.1 29 Este 51 Este 0.8 -- -- 87
2020-11-04 20:00:00 5.7 25 Este 48 Este 0.2 -- -- 82
2020-11-04 19:00:00 6.3 27 Este 48 Este 0.6 -- -- 79
2020-11-04 18:00:00 7.5 25 Este 50 Nordeste 0 -- -- 71
2020-11-04 17:00:00 8.5 25 Este 46 Este 0 -- -- 62
2020-11-04 16:00:00 9 27 Este 50 Este 0 -- -- 57
2020-11-04 15:00:00 9.5 30 Este 49 Este 0 -- -- 58
2020-11-04 14:00:00 9.8 28 Este 52 Este 0 -- -- 61
2020-11-04 13:00:00 9.6 30 Este 51 Este 0 -- -- 61
2020-11-04 12:00:00 8.5 27 Este 52 Nordeste 0 -- -- 68
2020-11-04 11:00:00 7.2 25 Este 47 Este 0 -- -- 76
2020-11-04 10:00:00 5.9 19 Este 35 Nordeste 0 -- -- 81
2020-11-04 09:00:00 3.6 12 Este 20 Este 0 -- -- 91
2020-11-04 08:00:00 2.2 5 Nordeste 18 Nordeste 0 -- -- 90
2020-11-04 07:00:00 2.5 9 Este 19 Este 0 -- -- 90
2020-11-04 06:00:00 2.8 10 Este 16 Este 0 -- -- 90
2020-11-04 05:00:00 2.9 9 Nordeste 20 Este 0 -- -- 91
2020-11-04 04:00:00 2.8 7 Este 14 Nordeste 0 -- -- 91
2020-11-04 03:00:00 3.1 9 Nordeste 15 Nordeste 0 -- -- 90
2020-11-04 02:00:00 3.2 7 Nordeste 18 Nordeste 0 -- -- 90
2020-11-04 01:00:00 4.1 12 Nordeste 36 Este 0 -- -- 87
2020-11-04 00:00:00 4.6 18 Este 34 Este 0 -- -- 86
2020-11-03 23:00:00 4.7 12 Nordeste 26 Nordeste 0 -- -- 85
2020-11-03 22:00:00 5.2 12 Nordeste 24 Nordeste 0 -- -- 84
2020-11-03 21:00:00 6.1 12 Nordeste 31 Este 0 -- -- 81
2020-11-03 20:00:00 7.1 16 Este 36 Este 0 -- -- 78
2020-11-03 19:00:00 8.8 20 Este 37 Este 0 -- -- 74
2020-11-03 18:00:00 10.6 17 Este 36 Sudeste 0 -- -- 65
2020-11-03 17:00:00 11.8 18 Este 37 Este 0 -- -- 62
2020-11-03 16:00:00 13.5 21 Este 38 Este 0 -- -- 59
2020-11-03 15:00:00 13.8 16 Este 32 Este 0 -- -- 58
2020-11-03 14:00:00 14.1 13 Nordeste 24 Este 0 -- -- 53
2020-11-03 13:00:00 13.6 14 Nordeste 28 Este 0 -- -- 57
2020-11-03 12:00:00 12.5 15 Nordeste 29 Este 0 -- -- 63
2020-11-03 11:00:00 11.2 11 Nordeste 18 Este 0 -- -- 77
2020-11-03 10:00:00 9.8 6 Nordeste 15 Norte 0 -- -- 86
2020-11-03 09:00:00 9.6 6 Nordeste 22 Este 0 -- -- 87
2020-11-03 08:00:00 9.7 10 Este 17 Nordeste 0 -- -- 86
2020-11-03 07:00:00 9.8 9 Este 20 Nordeste 0 -- -- 88
2020-11-03 06:00:00 10 11 Nordeste 25 Este 0 -- -- 87
2020-11-03 05:00:00 10.3 12 Nordeste 25 Nordeste 0 -- -- 88
2020-11-03 04:00:00 10.7 10 Norte 21 Nordeste 0 -- -- 85
2020-11-03 03:00:00 11.3 4 Nordeste 21 Norte 0 -- -- 84
2020-11-03 02:00:00 12.1 8 Norte 22 Norte 0 -- -- 82
2020-11-03 01:00:00 13.1 2 Este 12 Noroeste 0 -- -- 90
2020-11-03 00:00:00 13.9 8 Norte 18 Norte 0.4 -- -- 89
2020-11-02 23:00:00 14.5 0 Calma 6 Sudoeste 0 -- -- 86
2020-11-02 22:00:00 14.1 5 Sudoeste 7 Sudoeste 0 -- -- 87
2020-11-02 21:00:00 13.9 4 Sudoeste 7 Oeste 0 -- -- 86
2020-11-02 20:00:00 14.7 3 Sudoeste 9 Sudoeste 0 -- -- 83
2020-11-02 19:00:00 14.7 3 Sur 7 Sur 0 -- -- 82
2020-11-02 18:00:00 16.7 5 Sudoeste 16 Oeste 0 -- -- 77
2020-11-02 17:00:00 17.9 8 Oeste 18 Oeste 0 -- -- 72
2020-11-02 16:00:00 18.1 12 Oeste 21 Oeste 0 -- -- 70
2020-11-02 15:00:00 18.2 16 Oeste 26 Oeste 0 -- -- 70
2020-11-02 14:00:00 18.2 14 Oeste 20 Oeste 0 -- -- 72
2020-11-02 13:00:00 17.6 15 Oeste 27 Oeste 0 -- -- 75
2020-11-02 12:00:00 15.6 15 Oeste 26 Oeste 0 -- -- 84
2020-11-02 11:00:00 14.4 14 Oeste 25 Oeste 0 -- -- 92
2020-11-02 10:00:00 13 14 Oeste 26 Oeste 0 -- -- 93
2020-11-02 09:00:00 11.8 12 Sudoeste 19 Sudoeste 0 -- -- 96
2020-11-02 08:00:00 10.6 7 Sudoeste 14 Sudoeste 0 -- -- 96
2020-11-02 07:00:00 10 0 Calma 9 Oeste 0 -- -- 94
2020-11-02 06:00:00 12 8 Oeste 21 Sudoeste 0 -- -- 95
2020-11-02 05:00:00 12.2 13 Oeste 24 Oeste 0 -- -- 96
2020-11-02 04:00:00 12.1 14 Sudoeste 22 Sudoeste 0 -- -- 95
2020-11-02 03:00:00 12.6 13 Oeste 22 Oeste 0 -- -- 94
2020-11-02 02:00:00 12.4 8 Sudoeste 13 Sudoeste 0 -- -- 94
2020-11-02 01:00:00 11.2 0 Calma 6 Oeste 0 -- -- 93
2020-11-02 00:00:00 12.1 0 Calma 8 Sudoeste 0 -- -- 93
2020-11-01 23:00:00 11.7 0 Calma 8 Sudoeste 0 -- -- 93
2020-11-01 22:00:00 11.4 3 Sudoeste 6 Sudoeste 0 -- -- 91
2020-11-01 21:00:00 11.9 3 Oeste 8 Oeste 0 -- -- 89
2020-11-01 20:00:00 13.4 5 Oeste 9 Sudoeste 0 -- -- 85
2020-11-01 19:00:00 15.3 5 Sudoeste 11 Oeste 0 -- -- 83
2020-11-01 18:00:00 16.8 8 Oeste 13 Sudoeste 0 -- -- 78
2020-11-01 17:00:00 17.5 10 Sudoeste 18 Oeste 0 -- -- 75
2020-11-01 16:00:00 18.8 13 Sudoeste 24 Oeste 0 -- -- 70
2020-11-01 15:00:00 18.4 13 Oeste 23 Sudoeste 0 -- -- 73
2020-11-01 14:00:00 17.4 13 Oeste 22 Oeste 0 -- -- 77
2020-11-01 13:00:00 16 10 Oeste 16 Noroeste 0 -- -- 80
2020-11-01 12:00:00 15.7 10 Sudoeste 17 Sudoeste 0 -- -- 83
2020-11-01 11:00:00 14.2 8 Sudoeste 11 Sudoeste 0 -- -- 93
2020-11-01 10:00:00 11.8 4 Sudoeste 9 Sudoeste 0 -- -- 96
2020-11-01 09:00:00 9.6 3 Oeste 6 Oeste 0 -- -- 96
2020-11-01 08:00:00 7.3 3 Sudoeste 6 Sur 0 -- -- 95
2020-11-01 07:00:00 6.9 0 Calma 5 Sur 0 -- -- 95
2020-11-01 06:00:00 7.5 0 Calma 4 Noroeste 0 -- -- 94
2020-11-01 05:00:00 8.3 0 Calma 8 Oeste 0 -- -- 93
2020-11-01 04:00:00 9 4 Oeste 6 Sudoeste 0 -- -- 93
2020-11-01 03:00:00 9.8 5 Oeste 11 Sur 0 -- -- 93
2020-11-01 02:00:00 9.5 2 Sur 10 Sur 0 -- -- 95
2020-11-01 01:00:00 7.8 0 Calma 4 Norte 0 -- -- 95
2020-11-01 00:00:00 6.9 0 Calma 3 Oeste 0 -- -- 92
2020-10-31 23:00:00 7.4 0 Calma 5 Sur 0 -- -- 91
2020-10-31 22:00:00 8.3 0 Calma 3 Sudeste 0 -- -- 90
2020-10-31 21:00:00 9.7 0 Calma 4 Noroeste 0 -- -- 89
2020-10-31 20:00:00 11.2 2 Oeste 8 Sudoeste 0 -- -- 86
2020-10-31 19:00:00 13.4 4 Oeste 9 Sudoeste 0 -- -- 80
2020-10-31 18:00:00 17 4 Oeste 17 Sudoeste 0 -- -- 74
2020-10-31 17:00:00 17.9 13 Oeste 23 Oeste 0 -- -- 69
2020-10-31 16:00:00 18.2 15 Oeste 23 Oeste 0 -- -- 66
2020-10-31 15:00:00 18 14 Oeste 25 Oeste 0 -- -- 69
2020-10-31 14:00:00 17.6 13 Oeste 24 Oeste 0 -- -- 72
2020-10-31 13:00:00 15.9 12 Oeste 23 Oeste 0 -- -- 81
2020-10-31 12:00:00 15.8 16 Oeste 24 Oeste 0 -- -- 81
2020-10-31 11:00:00 13.9 10 Oeste 14 Oeste 0 -- -- 89
2020-10-31 10:00:00 10.8 6 Oeste 9 Oeste 0 -- -- 96
2020-10-31 09:00:00 6.7 0 Calma 10 Sur 0 -- -- 97
2020-10-31 08:00:00 3.7 7 Nordeste 14 Nordeste 0 -- -- 95
2020-10-31 07:00:00 3.5 0 Calma 8 Nordeste 0 -- -- 94
2020-10-31 06:00:00 4.1 5 Nordeste 9 Nordeste 0 -- -- 95
2020-10-31 05:00:00 4.4 0 Calma 9 Nordeste 0 -- -- 94
2020-10-31 04:00:00 5.7 5 Nordeste 8 Nordeste 0 -- -- 95
2020-10-31 03:00:00 6.1 2 Nordeste 6 Nordeste 0 -- -- 94
2020-10-31 02:00:00 6.6 3 Nordeste 7 Nordeste 0 -- -- 93
2020-10-31 01:00:00 7.3 4 Nordeste 9 Este 0 -- -- 94
2020-10-31 00:00:00 7.1 3 Este 8 Nordeste 0 -- -- 93
2020-10-30 23:00:00 7.4 3 Nordeste 8 Sur 0 -- -- 92
2020-10-30 22:00:00 7.9 4 Sudeste 5 Sudeste 0 -- -- 90
2020-10-30 21:00:00 8.8 0 Calma 8 Sudeste 0 -- -- 88
2020-10-30 20:00:00 10 0 Calma 6 Sudeste 0 -- -- 86
2020-10-30 19:00:00 12.7 0 Calma 3 Sudeste 0 -- -- 78
2020-10-30 18:00:00 17.6 4 Oeste 8 Oeste 0 -- -- 64
2020-10-30 17:00:00 19 4 Oeste 11 Oeste 0 -- -- 62
2020-10-30 16:00:00 18.8 8 Noroeste 13 Noroeste 0 -- -- 64
2020-10-30 15:00:00 18.3 3 Noroeste 14 Noroeste 0 -- -- 66
2020-10-30 14:00:00 17.3 7 Noroeste 16 Oeste 0 -- -- 68
2020-10-30 13:00:00 15.3 6 Norte 12 Nordeste 0 -- -- 75
2020-10-30 12:00:00 12.1 5 Nordeste 10 Nordeste 0 -- -- 93
2020-10-30 11:00:00 8.6 8 Nordeste 12 Nordeste 0 -- -- 95
2020-10-30 10:00:00 6.4 5 Nordeste 9 Nordeste 0 -- -- 97
2020-10-30 09:00:00 4.1 6 Nordeste 10 Nordeste 0 -- -- 97
2020-10-30 08:00:00 3.5 4 Este 9 Este 0 -- -- 96
2020-10-30 07:00:00 3.4 3 Nordeste 8 Nordeste 0 -- -- 96
2020-10-30 06:00:00 3.9 4 Este 8 Este 0 -- -- 96
2020-10-30 05:00:00 2.6 3 Nordeste 10 Nordeste 0 -- -- 96
2020-10-30 04:00:00 2.6 8 Nordeste 14 Nordeste 0 -- -- 95
2020-10-30 03:00:00 3.1 5 Nordeste 10 Este 0 -- -- 95
2020-10-30 02:00:00 3.4 3 Nordeste 5 Nordeste 0 -- -- 95
2020-10-30 01:00:00 3.6 4 Este 5 Nordeste 0 -- -- 94
2020-10-30 00:00:00 4 3 Nordeste 4 Nordeste 0 -- -- 94
2020-10-29 23:00:00 4.3 0 Calma 4 Sudeste 0 -- -- 93
2020-10-29 22:00:00 5.7 4 Este 5 Nordeste 0 -- -- 93
2020-10-29 21:00:00 6.4 4 Nordeste 5 Nordeste 0 -- -- 91
2020-10-29 20:00:00 7.5 0 Calma 5 Este 0 -- -- 86
2020-10-29 19:00:00 10.3 0 Calma 8 Noroeste 0 -- -- 81
2020-10-29 18:00:00 13.6 7 Oeste 10 Oeste 0 -- -- 72
2020-10-29 17:00:00 15 6 Noroeste 14 Noroeste 0 -- -- 68
2020-10-29 16:00:00 14.9 7 Noroeste 15 Noroeste 0 -- -- 69
2020-10-29 15:00:00 14.9 8 Noroeste 18 Noroeste 0 -- -- 69
2020-10-29 14:00:00 14.4 5 Noroeste 12 Noroeste 0 -- -- 71
2020-10-29 13:00:00 13.3 6 Oeste 13 Oeste 0 -- -- 77
2020-10-29 12:00:00 10.1 3 Norte 8 Nordeste 0 -- -- 94
2020-10-29 11:00:00 8 3 Nordeste 6 Nordeste 0 -- -- 97
2020-10-29 10:00:00 5.6 5 Nordeste 12 Nordeste 0 -- -- 96
2020-10-29 09:00:00 3.9 10 Nordeste 14 Nordeste 0 -- -- 96
2020-10-29 08:00:00 1.9 0 Calma 6 Nordeste 0 -- -- 95
2020-10-29 07:00:00 2.8 4 Este 6 Este 0 -- -- 95
2020-10-29 06:00:00 3.3 0 Calma 4 Sudoeste 0 -- -- 95
2020-10-29 05:00:00 4.3 0 Calma 4 Noroeste 0 -- -- 95
2020-10-29 04:00:00 3 0 Calma 13 Sur 0 -- -- 94
2020-10-29 03:00:00 2.9 3 Noroeste 4 Noroeste 0 -- -- 94
2020-10-29 02:00:00 3.5 0 Calma 4 Noroeste 0 -- -- 93
2020-10-29 01:00:00 4.2 0 Calma 8 Sur 0 -- -- 92
2020-10-29 00:00:00 5.5 0 Calma 8 Sur 0 -- -- 92
2020-10-28 23:00:00 6.1 0 Calma 3 Este 0 -- -- 91
2020-10-28 22:00:00 7.1 0 Calma 8 Sudoeste 0 -- -- 89
2020-10-28 21:00:00 8.6 5 Oeste 10 Sudoeste 0 -- -- 86
2020-10-28 20:00:00 10.2 8 Sudoeste 14 Sudoeste 0 -- -- 84
2020-10-28 19:00:00 12.2 7 Oeste 13 Oeste 0 -- -- 78
2020-10-28 18:00:00 14 6 Oeste 20 Sudoeste 0 -- -- 74
2020-10-28 17:00:00 15.2 15 Oeste 27 Oeste 0 -- -- 70
2020-10-28 16:00:00 15.2 14 Oeste 23 Oeste 0 -- -- 76
2020-10-28 15:00:00 15.5 17 Oeste 27 Oeste 0 -- -- 77
2020-10-28 14:00:00 15.1 17 Oeste 28 Oeste 0 -- -- 78
2020-10-28 13:00:00 14.4 19 Oeste 29 Oeste 0 -- -- 80
2020-10-28 12:00:00 14.1 20 Oeste 31 Oeste 0 -- -- 79
2020-10-28 11:00:00 13.2 18 Oeste 30 Oeste 0 -- -- 88
2020-10-28 10:00:00 12 15 Sudoeste 27 Oeste 0 -- -- 94
2020-10-28 09:00:00 11.3 16 Sudoeste 28 Sudoeste 0 -- -- 94
2020-10-28 08:00:00 11.5 15 Oeste 26 Oeste 0 -- -- 93
2020-10-28 07:00:00 11.6 16 Oeste 35 Oeste 0 -- -- 93
2020-10-28 06:00:00 11.3 19 Oeste 36 Sudoeste 0 -- -- 93
2020-10-28 05:00:00 11.2 18 Sudoeste 28 Oeste 0 -- -- 93
2020-10-28 04:00:00 10.9 14 Sudoeste 22 Sudoeste 0 -- -- 92
2020-10-28 03:00:00 10.8 14 Sudoeste 26 Oeste 0 -- -- 90
2020-10-28 02:00:00 10.7 18 Sudoeste 28 Sudoeste 0 -- -- 90
2020-10-28 01:00:00 10.8 15 Sudoeste 30 Sudoeste 0 -- -- 88
2020-10-28 00:00:00 10.8 18 Sudoeste 29 Sudoeste 0 -- -- 87